ARG1852 SABE-SAWC

Flight info

Callsign ARG1852
Flight time 3h 3m
Altitude 36000
Route GBE UT694 IREMO UP664 TRE/N0456F380 UP664 CRV UW48 BOKUK
Aircraft B38M/M-SDE1FGHILORVWXY/HB1

Departure

Time 2026-04-26 20:53
Airport Aeroparque Jorge Newbery (SABE)

Arrival

Time 2026-04-26 23:57
Airport El Calafate - Commander Armando Tola International Airport (SAWC)
Time Latitude Longitude Altitude Speed Heading
2026-04-26 20:12 -34.55722 -58.41407 31 ft 0 kts 31°
2026-04-26 20:43 -34.55723 -58.41408 31 ft 2 kts 31°
2026-04-26 20:43 -34.55745 -58.41422 31 ft 4 kts 17°
2026-04-26 20:44 -34.55761 -58.41420 31 ft 2 kts 305°
2026-04-26 20:44 -34.55776 -58.41395 31 ft 4 kts 304°
2026-04-26 20:44 -34.55781 -58.41386 31 ft 0 kts 304°
2026-04-26 20:47 -34.55779 -58.41390 31 ft 2 kts 304°
2026-04-26 20:47 -34.55767 -58.41411 31 ft 6 kts 305°
2026-04-26 20:47 -34.55727 -58.41489 31 ft 9 kts 299°
2026-04-26 20:47 -34.55740 -58.41560 31 ft 10 kts 218°
2026-04-26 20:48 -34.55804 -58.41574 30 ft 11 kts 134°
2026-04-26 20:48 -34.55844 -58.41487 30 ft 13 kts 117°
2026-04-26 20:48 -34.55885 -58.41386 31 ft 14 kts 116°
2026-04-26 20:48 -34.55935 -58.41277 31 ft 15 kts 124°
2026-04-26 20:49 -34.56003 -58.41167 31 ft 17 kts 127°
2026-04-26 20:49 -34.56077 -58.41048 31 ft 18 kts 127°
2026-04-26 20:49 -34.56145 -58.40937 31 ft 12 kts 125°
2026-04-26 20:49 -34.56183 -58.40837 31 ft 14 kts 110°
2026-04-26 20:50 -34.56225 -58.40725 31 ft 15 kts 124°
2026-04-26 20:50 -34.56289 -58.40612 31 ft 17 kts 125°
2026-04-26 20:50 -34.56375 -58.40504 31 ft 19 kts 139°
2026-04-26 20:50 -34.56419 -58.40457 31 ft 0 kts 139°
2026-04-26 20:51 -34.56422 -58.40453 31 ft 2 kts 139°
2026-04-26 20:51 -34.56439 -58.40435 31 ft 5 kts 139°
2026-04-26 20:51 -34.56475 -58.40397 30 ft 9 kts 138°
2026-04-26 20:51 -34.56534 -58.40399 29 ft 12 kts 239°
2026-04-26 20:52 -34.56529 -58.40488 29 ft 4 kts 301°
2026-04-26 20:52 -34.56528 -58.40491 29 ft 0 kts 302°
2026-04-26 20:52 -34.56524 -58.40498 29 ft 5 kts 303°
2026-04-26 20:52 -34.56379 -58.40758 29 ft 79 kts 303°
2026-04-26 20:53 -34.55923 -58.41576 28 ft 152 kts 304°
2026-04-26 20:53 -34.55233 -58.42767 345 ft 184 kts 303°
2026-04-26 20:53 -34.54479 -58.44057 1110 ft 190 kts 302°
2026-04-26 20:53 -34.53491 -58.45288 1580 ft 222 kts 322°
2026-04-26 20:54 -34.51902 -58.45889 2044 ft 253 kts
2026-04-26 20:54 -34.50231 -58.45137 3050 ft 270 kts 33°
2026-04-26 20:54 -34.48986 -58.43329 3723 ft 294 kts 64°
2026-04-26 20:54 -34.48596 -58.41739 4218 ft 298 kts 84°
2026-04-26 20:55 -34.48754 -58.39268 4570 ft 294 kts 113°
2026-04-26 20:55 -34.49715 -58.37141 4740 ft 284 kts 136°
2026-04-26 20:55 -34.51254 -58.35808 4824 ft 265 kts 169°
2026-04-26 20:55 -34.53026 -58.35588 4894 ft 252 kts 194°
2026-04-26 20:56 -34.54765 -58.35885 5027 ft 254 kts 194°
2026-04-26 20:56 -34.56513 -58.36155 5968 ft 252 kts 194°
2026-04-26 20:56 -34.58260 -58.36421 6901 ft 256 kts 194°
2026-04-26 20:56 -34.60040 -58.36685 7811 ft 261 kts 194°
2026-04-26 20:57 -34.61862 -58.36951 8671 ft 267 kts 194°
2026-04-26 20:57 -34.63722 -58.37219 9545 ft 271 kts 194°
2026-04-26 20:57 -34.65613 -58.37490 10319 ft 278 kts 196°
2026-04-26 20:57 -34.67602 -58.37773 10750 ft 297 kts 195°
2026-04-26 20:58 -34.69704 -58.38067 11191 ft 312 kts 197°
2026-04-26 20:58 -34.71913 -58.38377 11701 ft 324 kts 196°
2026-04-26 20:58 -34.74182 -58.38694 12435 ft 328 kts 197°
2026-04-26 20:58 -34.76448 -58.39025 13155 ft 332 kts 198°
2026-04-26 20:59 -34.78753 -58.39357 13883 ft 333 kts 198°
2026-04-26 20:59 -34.81083 -58.39695 14580 ft 338 kts 197°
2026-04-26 20:59 -34.83415 -58.40037 15296 ft 339 kts 198°
2026-04-26 20:59 -34.85748 -58.40378 15891 ft 343 kts 198°
2026-04-26 21:00 -34.88156 -58.40732 16581 ft 345 kts 198°
2026-04-26 21:00 -34.90545 -58.41083 17322 ft 346 kts 198°
2026-04-26 21:00 -34.92922 -58.41437 17843 ft 349 kts 198°
2026-04-26 21:00 -34.95339 -58.41784 18398 ft 353 kts 197°
2026-04-26 21:01 -34.97838 -58.41922 18927 ft 359 kts 193°
2026-04-26 21:01 -35.00332 -58.42042 19450 ft 359 kts 194°
2026-04-26 21:01 -35.02870 -58.42178 19791 ft 367 kts 194°
2026-04-26 21:01 -35.05417 -58.42325 20374 ft 366 kts 195°
2026-04-26 21:02 -35.07988 -58.42477 20823 ft 371 kts 194°
2026-04-26 21:02 -35.10489 -58.42977 21311 ft 354 kts 211°
2026-04-26 21:02 -35.12620 -58.44300 21751 ft 341 kts 221°
2026-04-26 21:02 -35.14695 -58.45819 22069 ft 350 kts 218°
2026-04-26 21:03 -35.16797 -58.47324 22528 ft 352 kts 217°
2026-04-26 21:03 -35.18931 -58.48846 22818 ft 360 kts 217°
2026-04-26 21:03 -35.21100 -58.50386 23284 ft 361 kts 217°
2026-04-26 21:03 -35.23285 -58.51944 23549 ft 366 kts 217°
2026-04-26 21:04 -35.25491 -58.53512 24075 ft 366 kts 217°
2026-04-26 21:04 -35.27708 -58.55094 24434 ft 371 kts 217°
2026-04-26 21:04 -35.29941 -58.56689 24899 ft 373 kts 217°
2026-04-26 21:04 -35.32192 -58.58295 25381 ft 374 kts 218°
2026-04-26 21:05 -35.34455 -58.59910 25794 ft 378 kts 218°
2026-04-26 21:05 -35.36720 -58.61526 26281 ft 377 kts 218°
2026-04-26 21:05 -35.38997 -58.63154 26571 ft 379 kts 218°
2026-04-26 21:05 -35.41248 -58.64766 26850 ft 384 kts 218°
2026-04-26 21:06 -35.43549 -58.66412 27288 ft 381 kts 218°
2026-04-26 21:06 -35.45848 -58.68064 27575 ft 385 kts 219°
2026-04-26 21:06 -35.48177 -58.69734 27937 ft 386 kts 219°
2026-04-26 21:06 -35.50498 -58.71398 28291 ft 387 kts 219°
2026-04-26 21:07 -35.52837 -58.73082 28579 ft 390 kts 219°
2026-04-26 21:07 -35.55195 -58.74775 28921 ft 392 kts 219°
2026-04-26 21:07 -35.57517 -58.76442 29273 ft 392 kts 220°
2026-04-26 21:07 -35.59881 -58.78142 29558 ft 395 kts 219°
2026-04-26 21:08 -35.62291 -58.79794 29925 ft 396 kts 219°
2026-04-26 21:08 -35.64705 -58.81447 30214 ft 398 kts 219°
2026-04-26 21:08 -35.67127 -58.83113 30540 ft 400 kts 219°
2026-04-26 21:08 -35.69562 -58.84788 30819 ft 401 kts 219°
2026-04-26 21:09 -35.71999 -58.86465 31202 ft 401 kts 219°
2026-04-26 21:09 -35.74430 -58.88140 31624 ft 399 kts 219°
2026-04-26 21:09 -35.76827 -58.89797 31976 ft 401 kts 219°
2026-04-26 21:09 -35.79254 -58.91471 32379 ft 398 kts 219°
2026-04-26 21:10 -35.81665 -58.93137 32777 ft 397 kts 219°
2026-04-26 21:10 -35.84072 -58.94802 33161 ft 395 kts 219°
2026-04-26 21:10 -35.86468 -58.96460 33501 ft 394 kts 219°
2026-04-26 21:10 -35.88860 -58.98116 33819 ft 394 kts 219°
2026-04-26 21:11 -35.91247 -58.99770 34151 ft 393 kts 219°
2026-04-26 21:11 -35.93638 -59.01428 34426 ft 394 kts 219°
2026-04-26 21:11 -35.96027 -59.03085 34692 ft 394 kts 219°
2026-04-26 21:11 -35.98409 -59.04739 34979 ft 394 kts 219°
2026-04-26 21:12 -36.00802 -59.06402 35215 ft 394 kts 219°
2026-04-26 21:12 -36.03196 -59.08067 35421 ft 396 kts 217°
2026-04-26 21:12 -36.05581 -59.09726 35484 ft 400 kts 217°
2026-04-26 21:12 -36.08002 -59.11412 35713 ft 400 kts 217°
2026-04-26 21:13 -36.10435 -59.13107 35929 ft 401 kts 217°
2026-04-26 21:13 -36.12865 -59.14801 36133 ft 401 kts 217°
2026-04-26 21:13 -36.15298 -59.16499 36336 ft 402 kts 217°
2026-04-26 21:13 -36.17737 -59.18202 36544 ft 401 kts 217°
2026-04-26 21:14 -36.20171 -59.19903 36729 ft 402 kts 217°
2026-04-26 21:14 -36.22605 -59.21605 36966 ft 401 kts 217°
2026-04-26 21:14 -36.25032 -59.23303 37244 ft 399 kts 217°
2026-04-26 21:14 -36.27408 -59.24967 37492 ft 397 kts 217°
2026-04-26 21:15 -36.29838 -59.26671 37710 ft 395 kts 217°
2026-04-26 21:15 -36.32202 -59.28328 37824 ft 396 kts 217°
2026-04-26 21:15 -36.34608 -59.30017 37836 ft 397 kts 217°
2026-04-26 21:16 -36.39407 -59.33388 37830 ft 396 kts 216°
2026-04-26 21:16 -36.44198 -59.36759 37826 ft 397 kts 216°
2026-04-26 21:17 -36.48981 -59.40129 37821 ft 396 kts 216°
2026-04-26 21:17 -36.53772 -59.43509 37815 ft 396 kts 216°
2026-04-26 21:18 -36.58565 -59.46896 37809 ft 396 kts 216°
2026-04-26 21:18 -36.63353 -59.50285 37806 ft 396 kts 216°
2026-04-26 21:19 -36.68149 -59.53683 37804 ft 396 kts 216°
2026-04-26 21:19 -36.72947 -59.57088 37798 ft 397 kts 216°
2026-04-26 21:20 -36.77721 -59.60481 37794 ft 398 kts 216°
2026-04-26 21:20 -36.82542 -59.63912 37796 ft 399 kts 216°
2026-04-26 21:21 -36.87370 -59.67353 37795 ft 399 kts 216°
2026-04-26 21:21 -36.92189 -59.70793 37796 ft 400 kts 216°
2026-04-26 21:22 -36.97038 -59.74258 37787 ft 400 kts 216°
2026-04-26 21:22 -37.01840 -59.77695 37789 ft 401 kts 216°
2026-04-26 21:23 -37.09120 -59.82917 37796 ft 402 kts 216°
2026-04-26 21:23 -37.13982 -59.86410 37793 ft 403 kts 215°
2026-04-26 21:24 -37.18843 -59.89908 37792 ft 403 kts 215°
2026-04-26 21:24 -37.23721 -59.93422 37798 ft 404 kts 215°
2026-04-26 21:25 -37.28598 -59.96941 37784 ft 404 kts 215°
2026-04-26 21:25 -37.33487 -60.00474 37784 ft 406 kts 214°
2026-04-26 21:26 -37.38375 -60.04011 37785 ft 403 kts 214°
2026-04-26 21:26 -37.43234 -60.07534 37790 ft 403 kts 214°
2026-04-26 21:27 -37.48067 -60.11042 37793 ft 404 kts 214°
2026-04-26 21:27 -37.52951 -60.14593 37790 ft 405 kts 214°
2026-04-26 21:28 -37.57828 -60.18145 37796 ft 405 kts 214°
2026-04-26 21:28 -37.62715 -60.21708 37804 ft 406 kts 214°
2026-04-26 21:29 -37.67576 -60.25260 37801 ft 406 kts 214°
2026-04-26 21:29 -37.72465 -60.28835 37811 ft 406 kts 214°
2026-04-26 21:30 -37.77359 -60.32421 37814 ft 407 kts 214°
2026-04-26 21:30 -37.82256 -60.36014 37823 ft 407 kts 214°
2026-04-26 21:31 -37.87155 -60.39614 37828 ft 407 kts 214°
2026-04-26 21:31 -37.92047 -60.43215 37834 ft 406 kts 214°
2026-04-26 21:32 -37.96922 -60.46810 37839 ft 405 kts 214°
2026-04-26 21:32 -38.01803 -60.50413 37876 ft 406 kts 214°
2026-04-26 21:33 -38.06674 -60.54013 37895 ft 409 kts 214°
2026-04-26 21:33 -38.11589 -60.57655 37895 ft 408 kts 214°
2026-04-26 21:34 -38.16501 -60.61299 37905 ft 408 kts 213°
2026-04-26 21:34 -38.21408 -60.64945 37914 ft 408 kts 213°
2026-04-26 21:35 -38.26269 -60.68562 37923 ft 407 kts 213°
2026-04-26 21:35 -38.31153 -60.72203 37927 ft 407 kts 213°
2026-04-26 21:36 -38.35212 -60.75232 37928 ft 406 kts 213°
2026-04-26 21:36 -38.40927 -60.79505 37941 ft 406 kts 213°
2026-04-26 21:37 -38.45766 -60.83128 37943 ft 406 kts 213°
2026-04-26 21:37 -38.50630 -60.86776 37951 ft 406 kts 213°
2026-04-26 21:38 -38.55498 -60.90434 37958 ft 406 kts 213°
2026-04-26 21:38 -38.60363 -60.94095 37963 ft 406 kts 213°
2026-04-26 21:39 -38.65230 -60.97762 37965 ft 405 kts 213°
2026-04-26 21:39 -38.70087 -61.01428 37979 ft 405 kts 213°
2026-04-26 21:40 -38.74941 -61.05098 37972 ft 405 kts 213°
2026-04-26 21:40 -38.79763 -61.08749 37978 ft 405 kts 213°
2026-04-26 21:41 -38.83823 -61.11829 37965 ft 405 kts 213°
2026-04-26 21:41 -38.88675 -61.15513 37973 ft 405 kts 213°
2026-04-26 21:42 -38.93528 -61.19205 37985 ft 405 kts 213°
2026-04-26 21:42 -38.98351 -61.22879 37980 ft 405 kts 212°
2026-04-26 21:43 -39.03202 -61.26581 37978 ft 405 kts 212°
2026-04-26 21:43 -39.08046 -61.30284 37979 ft 405 kts 212°
2026-04-26 21:44 -39.12858 -61.33968 37981 ft 405 kts 212°
2026-04-26 21:44 -39.17710 -61.37689 37981 ft 405 kts 212°
2026-04-26 21:45 -39.22553 -61.41408 37982 ft 405 kts 212°
2026-04-26 21:45 -39.27376 -61.45119 37980 ft 405 kts 212°
2026-04-26 21:46 -39.32216 -61.48848 37985 ft 405 kts 212°
2026-04-26 21:46 -39.37054 -61.52583 37990 ft 405 kts 212°
2026-04-26 21:47 -39.41898 -61.56327 37990 ft 405 kts 212°
2026-04-26 21:47 -39.46736 -61.60073 37993 ft 406 kts 211°
2026-04-26 21:48 -39.51576 -61.63828 37990 ft 405 kts 211°
2026-04-26 21:48 -39.56412 -61.67584 37989 ft 405 kts 211°
2026-04-26 21:49 -39.61219 -61.71325 37990 ft 405 kts 211°
2026-04-26 21:49 -39.66051 -61.75092 37989 ft 405 kts 211°
2026-04-26 21:50 -39.70883 -61.78865 37995 ft 405 kts 211°
2026-04-26 21:50 -39.75714 -61.82643 37998 ft 405 kts 211°
2026-04-26 21:51 -39.80532 -61.86445 38006 ft 405 kts 211°
2026-04-26 21:51 -39.85369 -61.90220 37999 ft 405 kts 211°
2026-04-26 21:52 -39.89850 -61.94579 38014 ft 406 kts 218°
2026-04-26 21:52 -39.94231 -61.99236 38008 ft 406 kts 218°
2026-04-26 21:53 -39.98601 -62.03914 38008 ft 406 kts 218°
2026-04-26 21:53 -40.02964 -62.08595 38008 ft 406 kts 218°
2026-04-26 21:54 -40.07322 -62.13282 38017 ft 406 kts 218°
2026-04-26 21:54 -40.11658 -62.17952 38008 ft 406 kts 218°
2026-04-26 21:55 -40.16012 -62.22649 38034 ft 406 kts 218°
2026-04-26 21:55 -40.20366 -62.27354 38035 ft 406 kts 218°
2026-04-26 21:56 -40.24721 -62.32069 38037 ft 405 kts 218°
2026-04-26 21:56 -40.29076 -62.36791 38044 ft 406 kts 218°
2026-04-26 21:57 -40.33386 -62.41473 38041 ft 404 kts 218°
2026-04-26 21:57 -40.37716 -62.46185 38045 ft 405 kts 218°
2026-04-26 21:58 -40.42053 -62.50912 38047 ft 404 kts 218°
2026-04-26 21:58 -40.46367 -62.55622 38044 ft 404 kts 218°
2026-04-26 21:59 -40.50686 -62.60346 38042 ft 404 kts 218°
2026-04-26 21:59 -40.55000 -62.65072 38044 ft 403 kts 218°
2026-04-26 22:00 -40.59296 -62.69788 38044 ft 403 kts 218°
2026-04-26 22:00 -40.63594 -62.74514 38046 ft 402 kts 218°
2026-04-26 22:01 -40.67896 -62.79252 38046 ft 403 kts 218°
2026-04-26 22:01 -40.72164 -62.83961 38045 ft 402 kts 218°
2026-04-26 22:02 -40.76446 -62.88694 38044 ft 400 kts 218°
2026-04-26 22:02 -40.80721 -62.93426 38045 ft 401 kts 218°
2026-04-26 22:03 -40.84990 -62.98158 38044 ft 400 kts 218°
2026-04-26 22:03 -40.89483 -63.02464 38053 ft 399 kts 212°
2026-04-26 22:04 -40.94027 -63.06599 38048 ft 399 kts 213°
2026-04-26 22:04 -40.98579 -63.10793 38046 ft 399 kts 213°
2026-04-26 22:05 -41.03157 -63.15026 38044 ft 398 kts 213°
2026-04-26 22:05 -41.07669 -63.19207 38045 ft 397 kts 213°
2026-04-26 22:06 -41.12196 -63.23407 38053 ft 397 kts 213°
2026-04-26 22:06 -41.16725 -63.27616 38055 ft 397 kts 213°
2026-04-26 22:07 -41.21223 -63.31806 38056 ft 397 kts 213°
2026-04-26 22:07 -41.25746 -63.36024 38054 ft 396 kts 213°
2026-04-26 22:08 -41.30257 -63.40239 38054 ft 396 kts 213°
2026-04-26 22:08 -41.34767 -63.44461 38060 ft 396 kts 213°
2026-04-26 22:09 -41.39282 -63.48694 38063 ft 397 kts 212°
2026-04-26 22:09 -41.43788 -63.52926 38064 ft 396 kts 212°
2026-04-26 22:10 -41.48279 -63.57152 38070 ft 394 kts 212°
2026-04-26 22:10 -41.52767 -63.61381 38073 ft 394 kts 212°
2026-04-26 22:11 -41.57249 -63.65613 38073 ft 394 kts 212°
2026-04-26 22:11 -41.61693 -63.69816 38086 ft 393 kts 212°
2026-04-26 22:12 -41.66161 -63.74048 38104 ft 393 kts 212°
2026-04-26 22:12 -41.70627 -63.78288 38110 ft 394 kts 212°
2026-04-26 22:13 -41.75103 -63.82542 38117 ft 394 kts 212°
2026-04-26 22:13 -41.79540 -63.86767 38126 ft 392 kts 212°
2026-04-26 22:14 -41.83989 -63.91011 38131 ft 393 kts 212°
2026-04-26 22:14 -41.88445 -63.95271 38139 ft 393 kts 212°
2026-04-26 22:15 -41.92894 -63.99531 38147 ft 393 kts 212°
2026-04-26 22:15 -41.97349 -64.03803 38143 ft 393 kts 212°
2026-04-26 22:16 -42.01799 -64.08077 38153 ft 393 kts 212°
2026-04-26 22:16 -42.06245 -64.12356 38149 ft 393 kts 212°
2026-04-26 22:17 -42.10689 -64.16640 38169 ft 393 kts 212°
2026-04-26 22:17 -42.15104 -64.20904 38173 ft 393 kts 212°
2026-04-26 22:18 -42.19552 -64.25207 38177 ft 393 kts 212°
2026-04-26 22:18 -42.23996 -64.29514 38183 ft 393 kts 212°
2026-04-26 22:19 -42.28441 -64.33829 38185 ft 393 kts 212°
2026-04-26 22:19 -42.32881 -64.38148 38192 ft 393 kts 212°
2026-04-26 22:20 -42.36564 -64.41737 38197 ft 393 kts 212°
2026-04-26 22:20 -42.41753 -64.46801 38199 ft 392 kts 212°
2026-04-26 22:21 -42.46150 -64.51100 38206 ft 392 kts 212°
2026-04-26 22:21 -42.50576 -64.55436 38215 ft 393 kts 212°
2026-04-26 22:22 -42.55008 -64.59785 38209 ft 393 kts 212°
2026-04-26 22:22 -42.59439 -64.64141 38217 ft 393 kts 212°
2026-04-26 22:23 -42.63869 -64.68504 38219 ft 393 kts 212°
2026-04-26 22:23 -42.68293 -64.72868 38219 ft 393 kts 212°
2026-04-26 22:24 -42.72719 -64.77242 38232 ft 393 kts 212°
2026-04-26 22:24 -42.77132 -64.81613 38225 ft 392 kts 212°
2026-04-26 22:25 -42.81515 -64.85960 38233 ft 392 kts 212°
2026-04-26 22:25 -42.85923 -64.90341 38233 ft 392 kts 212°
2026-04-26 22:26 -42.90328 -64.94726 38235 ft 392 kts 212°
2026-04-26 22:26 -42.94739 -64.99125 38244 ft 392 kts 212°
2026-04-26 22:27 -42.99114 -65.03496 38239 ft 392 kts 212°
2026-04-26 22:27 -43.03516 -65.07901 38242 ft 392 kts 212°
2026-04-26 22:28 -43.07916 -65.12310 38234 ft 392 kts 212°
2026-04-26 22:28 -43.12317 -65.16729 38243 ft 392 kts 212°
2026-04-26 22:29 -43.16712 -65.21150 38235 ft 392 kts 212°
2026-04-26 22:29 -43.20389 -65.24766 38228 ft 389 kts 207°
2026-04-26 22:30 -43.25070 -65.28498 38244 ft 389 kts 206°
2026-04-26 22:30 -43.29756 -65.32199 38246 ft 389 kts 206°
2026-04-26 22:31 -43.34440 -65.35892 38240 ft 388 kts 206°
2026-04-26 22:31 -43.39133 -65.39600 38244 ft 389 kts 206°
2026-04-26 22:32 -43.43816 -65.43305 38243 ft 388 kts 206°
2026-04-26 22:32 -43.48497 -65.47016 38230 ft 387 kts 206°
2026-04-26 22:33 -43.55474 -65.52559 38226 ft 387 kts 206°
2026-04-26 22:34 -43.60140 -65.56274 38237 ft 387 kts 206°
2026-04-26 22:34 -43.64808 -65.59999 38240 ft 387 kts 206°
2026-04-26 22:35 -43.69469 -65.63724 38242 ft 387 kts 206°
2026-04-26 22:35 -43.74131 -65.67456 38242 ft 387 kts 206°
2026-04-26 22:36 -43.78792 -65.71195 38240 ft 386 kts 206°
2026-04-26 22:36 -43.83408 -65.74904 38233 ft 386 kts 206°
2026-04-26 22:37 -43.88060 -65.78649 38241 ft 387 kts 206°
2026-04-26 22:37 -43.92712 -65.82400 38229 ft 386 kts 206°
2026-04-26 22:38 -43.97354 -65.86149 38223 ft 386 kts 206°
2026-04-26 22:38 -44.02009 -65.89921 38224 ft 386 kts 206°
2026-04-26 22:39 -44.06619 -65.93660 38230 ft 386 kts 206°
2026-04-26 22:39 -44.11277 -65.97446 38231 ft 386 kts 207°
2026-04-26 22:40 -44.15923 -66.01229 38233 ft 386 kts 207°
2026-04-26 22:40 -44.20570 -66.05020 38224 ft 386 kts 207°
2026-04-26 22:41 -44.25183 -66.08789 38225 ft 386 kts 207°
2026-04-26 22:41 -44.29820 -66.12585 38228 ft 386 kts 207°
2026-04-26 22:42 -44.34460 -66.16392 38230 ft 386 kts 207°
2026-04-26 22:42 -44.39060 -66.20172 38221 ft 386 kts 207°
2026-04-26 22:43 -44.43684 -66.23979 38214 ft 385 kts 207°
2026-04-26 22:43 -44.48303 -66.27789 38219 ft 385 kts 207°
2026-04-26 22:44 -44.52927 -66.31610 38222 ft 386 kts 207°
2026-04-26 22:44 -44.57552 -66.35439 38217 ft 386 kts 207°
2026-04-26 22:45 -44.62177 -66.39275 38223 ft 386 kts 207°
2026-04-26 22:45 -44.66804 -66.43120 38226 ft 386 kts 207°
2026-04-26 22:46 -44.71428 -66.46969 38218 ft 386 kts 207°
2026-04-26 22:46 -44.76046 -66.50822 38227 ft 386 kts 208°
2026-04-26 22:47 -44.80641 -66.54661 38220 ft 386 kts 208°
2026-04-26 22:47 -44.85264 -66.58532 38222 ft 386 kts 208°
2026-04-26 22:48 -44.89889 -66.62411 38213 ft 386 kts 208°
2026-04-26 22:48 -44.94513 -66.66296 38212 ft 386 kts 208°
2026-04-26 22:49 -44.99132 -66.70185 38213 ft 387 kts 208°
2026-04-26 22:49 -45.03729 -66.74064 38211 ft 387 kts 208°
2026-04-26 22:50 -45.08376 -66.77991 38209 ft 387 kts 208°
2026-04-26 22:50 -45.12973 -66.81882 38215 ft 387 kts 208°
2026-04-26 22:51 -45.17590 -66.85798 38209 ft 387 kts 208°
2026-04-26 22:51 -45.22198 -66.89713 38208 ft 387 kts 208°
2026-04-26 22:52 -45.26809 -66.93640 38213 ft 387 kts 208°
2026-04-26 22:52 -45.31429 -66.97581 38212 ft 387 kts 208°
2026-04-26 22:53 -45.36038 -67.01521 38209 ft 387 kts 208°
2026-04-26 22:53 -45.40645 -67.05465 38213 ft 386 kts 208°
2026-04-26 22:54 -45.45224 -67.09394 38212 ft 386 kts 208°
2026-04-26 22:54 -45.49822 -67.13347 38210 ft 386 kts 208°
2026-04-26 22:55 -45.54421 -67.17308 38214 ft 386 kts 208°
2026-04-26 22:55 -45.58980 -67.21242 38213 ft 385 kts 208°
2026-04-26 22:56 -45.63569 -67.25211 38211 ft 385 kts 209°
2026-04-26 22:56 -45.68160 -67.29187 38207 ft 385 kts 209°
2026-04-26 22:57 -45.72744 -67.33166 38212 ft 384 kts 209°
2026-04-26 22:57 -45.77303 -67.37175 38210 ft 384 kts 211°
2026-04-26 22:58 -45.81745 -67.41377 38207 ft 384 kts 211°
2026-04-26 22:58 -45.86217 -67.45587 38213 ft 384 kts 211°
2026-04-26 22:59 -45.90686 -67.49797 38211 ft 384 kts 211°
2026-04-26 22:59 -45.95165 -67.54023 38214 ft 383 kts 211°
2026-04-26 23:00 -45.99590 -67.58207 38208 ft 383 kts 211°
2026-04-26 23:00 -46.04046 -67.62430 38214 ft 384 kts 211°
2026-04-26 23:01 -46.08505 -67.66662 38209 ft 383 kts 211°
2026-04-26 23:01 -46.12959 -67.70899 38212 ft 383 kts 211°
2026-04-26 23:02 -46.17411 -67.75142 38211 ft 383 kts 211°
2026-04-26 23:02 -46.21823 -67.79355 38204 ft 383 kts 211°
2026-04-26 23:03 -46.26269 -67.83609 38195 ft 382 kts 211°
2026-04-26 23:03 -46.30708 -67.87866 38205 ft 383 kts 211°
2026-04-26 23:04 -46.35151 -67.92133 38198 ft 383 kts 211°
2026-04-26 23:04 -46.39596 -67.96411 38203 ft 384 kts 211°
2026-04-26 23:05 -46.44045 -68.00701 38195 ft 384 kts 211°
2026-04-26 23:05 -46.48484 -68.04991 38190 ft 382 kts 211°
2026-04-26 23:06 -46.52891 -68.09258 38194 ft 383 kts 211°
2026-04-26 23:06 -46.57334 -68.13569 38193 ft 384 kts 212°
2026-04-26 23:07 -46.61772 -68.17883 38185 ft 384 kts 212°
2026-04-26 23:07 -46.66223 -68.22219 38183 ft 384 kts 212°
2026-04-26 23:08 -46.70665 -68.26554 38183 ft 384 kts 212°
2026-04-26 23:08 -46.75102 -68.30893 38173 ft 384 kts 212°
2026-04-26 23:09 -46.79506 -68.35209 38174 ft 384 kts 212°
2026-04-26 23:09 -46.83941 -68.39564 38175 ft 384 kts 212°
2026-04-26 23:10 -46.88388 -68.43940 38165 ft 385 kts 212°
2026-04-26 23:10 -46.92837 -68.48326 38167 ft 385 kts 212°
2026-04-26 23:11 -46.97278 -68.52714 38162 ft 386 kts 212°
2026-04-26 23:11 -47.01724 -68.57116 38153 ft 385 kts 212°
2026-04-26 23:12 -47.06170 -68.61526 38147 ft 385 kts 212°
2026-04-26 23:12 -47.10603 -68.65932 38128 ft 385 kts 212°
2026-04-26 23:13 -47.15042 -68.70354 38131 ft 386 kts 212°
2026-04-26 23:13 -47.19480 -68.74784 38118 ft 385 kts 213°
2026-04-26 23:14 -47.23916 -68.79221 38120 ft 385 kts 213°
2026-04-26 23:14 -47.28321 -68.83636 38126 ft 386 kts 213°
2026-04-26 23:15 -47.32772 -68.88105 38115 ft 386 kts 213°
2026-04-26 23:15 -47.37214 -68.92576 38109 ft 387 kts 213°
2026-04-26 23:16 -47.40912 -68.96305 38104 ft 387 kts 213°
2026-04-26 23:16 -47.46078 -69.01524 38099 ft 387 kts 213°
2026-04-26 23:17 -47.49796 -69.05290 38095 ft 386 kts 213°
2026-04-26 23:17 -47.54231 -69.09789 38088 ft 387 kts 213°
2026-04-26 23:18 -47.58635 -69.14265 38094 ft 386 kts 213°
2026-04-26 23:18 -47.63065 -69.18777 38082 ft 386 kts 214°
2026-04-26 23:19 -47.67491 -69.23296 38086 ft 386 kts 214°
2026-04-26 23:19 -47.71925 -69.27833 38082 ft 387 kts 214°
2026-04-26 23:20 -47.76363 -69.32381 38059 ft 388 kts 214°
2026-04-26 23:20 -47.80806 -69.36946 38056 ft 388 kts 214°
2026-04-26 23:21 -47.85245 -69.41517 38052 ft 388 kts 214°
2026-04-26 23:21 -47.89684 -69.46096 38042 ft 387 kts 214°
2026-04-26 23:22 -47.94083 -69.50644 38044 ft 388 kts 214°
2026-04-26 23:22 -47.98511 -69.55231 38036 ft 387 kts 215°
2026-04-26 23:23 -48.02944 -69.59834 38036 ft 388 kts 215°
2026-04-26 23:23 -48.07385 -69.64454 38027 ft 389 kts 215°
2026-04-26 23:24 -48.11815 -69.69073 38024 ft 388 kts 215°
2026-04-26 23:24 -48.16249 -69.73707 38019 ft 388 kts 215°
2026-04-26 23:25 -48.20652 -69.78316 38019 ft 388 kts 215°
2026-04-26 23:25 -48.25088 -69.82969 38013 ft 388 kts 215°
2026-04-26 23:26 -48.29515 -69.87622 38008 ft 388 kts 215°
2026-04-26 23:26 -48.33944 -69.92287 38006 ft 388 kts 216°
2026-04-26 23:27 -48.38372 -69.96961 37994 ft 388 kts 216°
2026-04-26 23:27 -48.42774 -70.01617 37996 ft 389 kts 216°
2026-04-26 23:28 -48.47225 -70.06299 37791 ft 389 kts 215°
2026-04-26 23:28 -48.49446 -70.08628 37563 ft 388 kts 215°
2026-04-26 23:28 -48.51664 -70.10958 37349 ft 388 kts 216°
2026-04-26 23:28 -48.53883 -70.13289 37140 ft 388 kts 216°
2026-04-26 23:29 -48.56096 -70.15617 36904 ft 388 kts 216°
2026-04-26 23:29 -48.58277 -70.17914 36702 ft 385 kts 216°
2026-04-26 23:29 -48.60458 -70.20214 36214 ft 381 kts 216°
2026-04-26 23:29 -48.62643 -70.22519 35516 ft 383 kts 216°
2026-04-26 23:30 -48.64830 -70.24830 34868 ft 384 kts 216°
2026-04-26 23:30 -48.67014 -70.27139 34342 ft 382 kts 216°
2026-04-26 23:30 -48.69178 -70.29431 33892 ft 378 kts 216°
2026-04-26 23:30 -48.71327 -70.31707 33416 ft 375 kts 216°
2026-04-26 23:31 -48.73457 -70.33967 32911 ft 373 kts 216°
2026-04-26 23:31 -48.75579 -70.36221 32408 ft 370 kts 216°
2026-04-26 23:31 -48.77683 -70.38458 31915 ft 368 kts 216°
2026-04-26 23:31 -48.79776 -70.40685 31385 ft 367 kts 216°
2026-04-26 23:32 -48.81866 -70.42910 30881 ft 365 kts 217°
2026-04-26 23:32 -48.83914 -70.45092 30431 ft 362 kts 217°
2026-04-26 23:32 -48.85968 -70.47285 29976 ft 360 kts 217°
2026-04-26 23:32 -48.88011 -70.49468 29512 ft 357 kts 217°
2026-04-26 23:33 -48.90039 -70.51636 29065 ft 355 kts 217°
2026-04-26 23:33 -48.92058 -70.53797 28616 ft 353 kts 217°
2026-04-26 23:33 -48.94062 -70.55944 28174 ft 351 kts 217°
2026-04-26 23:33 -48.96054 -70.58080 27731 ft 349 kts 217°
2026-04-26 23:34 -48.98035 -70.60206 27309 ft 347 kts 217°
2026-04-26 23:34 -49.00005 -70.62324 26883 ft 346 kts 217°
2026-04-26 23:34 -49.01966 -70.64434 26469 ft 344 kts 217°
2026-04-26 23:34 -49.03921 -70.66538 26048 ft 342 kts 217°
2026-04-26 23:35 -49.05835 -70.68601 25650 ft 341 kts 217°
2026-04-26 23:35 -49.07767 -70.70686 25248 ft 339 kts 217°
2026-04-26 23:35 -49.09684 -70.72756 24861 ft 337 kts 217°
2026-04-26 23:35 -49.11592 -70.74817 24468 ft 335 kts 217°
2026-04-26 23:36 -49.13492 -70.76873 24079 ft 333 kts 217°
2026-04-26 23:36 -49.15378 -70.78915 23700 ft 331 kts 217°
2026-04-26 23:36 -49.17259 -70.80955 23291 ft 331 kts 217°
2026-04-26 23:36 -49.19130 -70.82985 22918 ft 328 kts 217°
2026-04-26 23:37 -49.20963 -70.84976 22575 ft 325 kts 217°
2026-04-26 23:37 -49.22801 -70.86974 22206 ft 323 kts 217°
2026-04-26 23:37 -49.24626 -70.88960 21849 ft 321 kts 218°
2026-04-26 23:37 -49.26438 -70.90933 21505 ft 318 kts 218°
2026-04-26 23:38 -49.28236 -70.92893 21138 ft 316 kts 218°
2026-04-26 23:38 -49.30024 -70.94844 20798 ft 314 kts 218°
2026-04-26 23:38 -49.31790 -70.96774 20460 ft 311 kts 218°
2026-04-26 23:38 -49.33546 -70.98692 20119 ft 309 kts 218°
2026-04-26 23:39 -49.35290 -71.00600 19778 ft 307 kts 218°
2026-04-26 23:39 -49.37026 -71.02502 19442 ft 304 kts 218°
2026-04-26 23:39 -49.38743 -71.04384 19111 ft 303 kts 218°
2026-04-26 23:39 -49.40477 -71.06286 18772 ft 309 kts 218°
2026-04-26 23:40 -49.42213 -71.08191 18429 ft 311 kts 219°
2026-04-26 23:40 -49.43992 -71.10146 18088 ft 310 kts 219°
2026-04-26 23:40 -49.45739 -71.12068 17748 ft 306 kts 219°
2026-04-26 23:40 -49.47440 -71.13939 17388 ft 302 kts 218°
2026-04-26 23:41 -49.49139 -71.15808 17072 ft 299 kts 219°
2026-04-26 23:41 -49.50822 -71.17664 16792 ft 295 kts 219°
2026-04-26 23:41 -49.52473 -71.19494 16472 ft 290 kts 219°
2026-04-26 23:41 -49.54119 -71.21309 16144 ft 293 kts 219°
2026-04-26 23:42 -49.55790 -71.23156 15808 ft 298 kts 219°
2026-04-26 23:42 -49.59171 -71.26897 15150 ft 299 kts 219°
2026-04-26 23:42 -49.60856 -71.28765 14817 ft 296 kts 219°
2026-04-26 23:43 -49.62650 -71.30330 14456 ft 298 kts 208°
2026-04-26 23:43 -49.64517 -71.31688 14126 ft 295 kts 209°
2026-04-26 23:43 -49.66358 -71.33070 13819 ft 292 kts 210°
2026-04-26 23:43 -49.68144 -71.34432 13519 ft 288 kts 210°
2026-04-26 23:44 -49.69932 -71.35812 13216 ft 286 kts 210°
2026-04-26 23:44 -49.71706 -71.37187 12900 ft 284 kts 210°
2026-04-26 23:44 -49.73470 -71.38561 12588 ft 284 kts 210°
2026-04-26 23:44 -49.75257 -71.39955 12271 ft 288 kts 210°
2026-04-26 23:45 -49.77066 -71.41369 11957 ft 293 kts 210°
2026-04-26 23:45 -49.78892 -71.42799 11647 ft 294 kts 210°
2026-04-26 23:45 -49.80708 -71.44219 11322 ft 293 kts 210°
2026-04-26 23:45 -49.82530 -71.45647 11003 ft 294 kts 211°
2026-04-26 23:46 -49.84355 -71.47080 10678 ft 294 kts 211°
2026-04-26 23:46 -49.86183 -71.48514 10365 ft 294 kts 211°
2026-04-26 23:46 -49.87978 -71.49926 10109 ft 291 kts 211°
2026-04-26 23:46 -49.89760 -71.51327 9963 ft 282 kts 211°
2026-04-26 23:47 -49.91489 -71.52680 9822 ft 276 kts 211°
2026-04-26 23:47 -49.93214 -71.54026 9437 ft 277 kts 211°
2026-04-26 23:47 -49.94943 -71.55377 9077 ft 278 kts 211°
2026-04-26 23:47 -49.96670 -71.56725 8741 ft 278 kts 212°
2026-04-26 23:48 -49.98393 -71.58073 8386 ft 277 kts 212°
2026-04-26 23:48 -50.00109 -71.59417 8060 ft 276 kts 212°
2026-04-26 23:48 -50.01827 -71.60763 7722 ft 277 kts 212°
2026-04-26 23:48 -50.03522 -71.62092 7392 ft 277 kts 212°
2026-04-26 23:49 -50.05244 -71.63443 7066 ft 277 kts 212°
2026-04-26 23:49 -50.06972 -71.64800 6734 ft 277 kts 212°
2026-04-26 23:49 -50.08692 -71.66152 6417 ft 276 kts 212°
2026-04-26 23:49 -50.10384 -71.67484 6180 ft 271 kts 212°
2026-04-26 23:50 -50.12065 -71.68807 5897 ft 268 kts 212°
2026-04-26 23:50 -50.13715 -71.70104 5660 ft 261 kts 212°
2026-04-26 23:50 -50.15299 -71.71351 5440 ft 248 kts 212°
2026-04-26 23:50 -50.16823 -71.72485 5224 ft 239 kts 204°
2026-04-26 23:51 -50.18386 -71.73166 5001 ft 230 kts 199°
2026-04-26 23:51 -50.19876 -71.73761 4851 ft 213 kts 199°
2026-04-26 23:51 -50.21263 -71.74325 4660 ft 198 kts 199°
2026-04-26 23:51 -50.22555 -71.74853 4504 ft 183 kts 200°
2026-04-26 23:52 -50.23760 -71.75353 4393 ft 177 kts 200°
2026-04-26 23:52 -50.24936 -71.75893 4137 ft 174 kts 212°
2026-04-26 23:52 -50.25744 -71.77131 3807 ft 159 kts 248°
2026-04-26 23:52 -50.26149 -71.78739 3655 ft 160 kts 257°
2026-04-26 23:53 -50.26419 -71.80420 3471 ft 159 kts 263°
2026-04-26 23:53 -50.26594 -71.82098 3281 ft 158 kts 266°
2026-04-26 23:53 -50.26727 -71.83800 3079 ft 158 kts 268°
2026-04-26 23:53 -50.26839 -71.85518 2878 ft 158 kts 267°
2026-04-26 23:54 -50.26941 -71.87169 2733 ft 147 kts 267°
2026-04-26 23:54 -50.27034 -71.88729 2516 ft 142 kts 266°
2026-04-26 23:54 -50.27126 -71.90253 2324 ft 141 kts 265°
2026-04-26 23:54 -50.27204 -71.91768 2120 ft 139 kts 266°
2026-04-26 23:55 -50.27277 -71.93285 1958 ft 142 kts 264°
2026-04-26 23:55 -50.27385 -71.94828 1803 ft 144 kts 262°
2026-04-26 23:55 -50.27481 -71.96395 1644 ft 143 kts 264°
2026-04-26 23:55 -50.27571 -71.97933 1428 ft 141 kts 263°
2026-04-26 23:56 -50.27672 -71.99454 1206 ft 140 kts 263°
2026-04-26 23:56 -50.27755 -72.00987 1021 ft 143 kts 263°
2026-04-26 23:56 -50.27854 -72.02536 828 ft 145 kts 263°
2026-04-26 23:56 -50.27945 -72.04072 650 ft 136 kts 264°
2026-04-26 23:57 -50.28018 -72.05286 645 ft 79 kts 265°
2026-04-26 23:57 -50.28052 -72.05857 645 ft 35 kts 264°
2026-04-26 23:57 -50.28109 -72.06212 645 ft 29 kts 238°
2026-04-26 23:57 -50.28178 -72.06351 643 ft 7 kts 230°
2026-04-26 23:58 -50.28227 -72.06404 643 ft 10 kts 194°
2026-04-26 23:58 -50.28295 -72.06371 643 ft 12 kts 133°
2026-04-26 23:58 -50.28309 -72.06240 643 ft 14 kts 86°
2026-04-26 23:58 -50.28299 -72.06079 646 ft 16 kts 84°
2026-04-26 23:59 -50.28288 -72.05898 644 ft 18 kts 84°
2026-04-26 23:59 -50.28277 -72.05690 644 ft 20 kts 86°
2026-04-26 23:59 -50.28268 -72.05537 644 ft 10 kts 83°
2026-04-26 23:59 -50.28260 -72.05435 644 ft 9 kts 83°
2026-04-27 00:00 -50.28289 -72.05390 643 ft 7 kts 178°
2026-04-27 00:00 -50.28334 -72.05386 643 ft 2 kts 175°
2026-04-27 00:00 -50.28340 -72.05385 643 ft 0 kts 175°